Weather History for Valladolid Airport, Spain

Change the Weather History Date:

Thursday, January 24, 2013

  Actual Average Record
Temperature  
Mean Temperature 40 °F -  
Max Temperature 46 °F - - ()
Min Temperature 33 °F - - ()
Degree Days  
Heating Degree Days 26    
Moisture  
Dew Point 36 °F    
Average Humidity 82    
Maximum Humidity 100    
Minimum Humidity 57    
Precipitation  
Precipitation 0.00 in - - ()
Sea Level Pressure  
Sea Level Pressure 29.89 in    
Wind  
Wind Speed 19 mph ()    
Max Wind Speed 28 mph    
Max Gust Speed 39 mph    
Visibility 4.7 miles    
Events Fog    
T = Trace of Precipitation, MM = Missing Value Source: Averaged Metar Reports

Daily Weather History Graph

Daily Weather History Graph

Search for Another Location

Airport:

Trip Planner

Search our weather history database for the weather conditions in past years. The results will help you decide how hot, cold, wet, or windy it might be!

Date:

Astronomy

Jan. 24, 2013 Rise Set
Actual Time 8:38 AM CET 6:24 PM CET
Civil Twilight 8:08 AM CET 6:54 PM CET
Nautical Twilight 7:34 AM CET 7:28 PM CET
Astronomical Twilight 7:01 AM CET 8:01 PM CET
Moon 4:13 PM CET (1/24) 6:26 AM CET (1/24)
Length of Visible Light 10h 46m
Length of Day
9h 46m
Waxing Gibbous, 93% of the Moon is Illuminated
Jan 24
Waxing Gibbous
Jan 27
Full
Feb 3
Last Quarter
Feb 10
New
Feb 17
First Quarter

Hourly Weather History & Observations

Time (CET) Temp. Windchill Dew Point Humidity Pressure Visibility Wind Dir Wind Speed Gust Speed Precip Events Conditions
12:00 AM 41.0 °F 30.9 °F 41.0 °F 100% 29.83 in 0.4 mi West 24.2 mph - N/A Fog Fog
12:30 AM 42.8 °F 33.3 °F 42.8 °F 100% 29.80 in 0.4 mi West 24.2 mph - N/A Fog Fog
1:00 AM 42.8 °F 33.1 °F 42.8 °F 100% 29.80 in 0.4 mi West 25.3 mph 38.0 mph N/A Fog Fog
1:30 AM 42.8 °F 32.7 °F 42.8 °F 100% 29.77 in 0.4 mi West 27.6 mph 39.1 mph N/A Fog Fog
2:00 AM 42.8 °F 32.7 °F 42.8 °F 100% 29.77 in 0.4 mi West 27.6 mph - N/A Fog Fog
2:30 AM 44.6 °F 35.5 °F 44.6 °F 100% 29.77 in 0.4 mi West 25.3 mph 36.8 mph N/A Fog Fog
3:00 AM 44.6 °F 35.3 °F 44.6 °F 100% 29.74 in 0.4 mi West 26.5 mph 38.0 mph N/A Fog Fog
3:30 AM 44.6 °F 35.3 °F 44.6 °F 100% 29.77 in 0.4 mi West 26.5 mph 39.1 mph N/A Fog Fog
4:00 AM 42.8 °F 33.1 °F 42.8 °F 100% 29.77 in 0.4 mi West 25.3 mph - N/A Fog Fog
4:30 AM 44.6 °F 35.7 °F 42.8 °F 93% 29.77 in 0.4 mi West 24.2 mph 36.8 mph N/A Fog Fog
5:00 AM 42.8 °F 33.5 °F 42.8 °F 100% 29.77 in 0.4 mi West 23.0 mph - N/A Fog Fog
5:30 AM 42.8 °F 33.3 °F 42.8 °F 100% 29.77 in 0.4 mi West 24.2 mph - N/A Fog Fog
6:00 AM 42.8 °F 34.0 °F 41.0 °F 93% 29.80 in 6.2 mi WNW 20.7 mph - N/A   Mostly Cloudy
6:30 AM 41.0 °F 31.6 °F 39.2 °F 93% 29.80 in 6.2 mi WNW 20.7 mph - N/A   Mostly Cloudy
7:00 AM 41.0 °F 31.9 °F 35.6 °F 81% 29.80 in 6.2 mi WNW 19.6 mph - N/A   Scattered Clouds
7:30 AM 39.2 °F 28.7 °F 35.6 °F 87% 29.80 in 6.2 mi WNW 23.0 mph - N/A   Partly Cloudy
8:00 AM 39.2 °F 29.0 °F 35.6 °F 87% 29.83 in 6.2 mi WNW 21.9 mph - N/A   Partly Cloudy
8:30 AM 39.2 °F 29.0 °F 35.6 °F 87% 29.83 in 6.2 mi WNW 21.9 mph - N/A   Partly Cloudy
9:00 AM 37.4 °F 26.9 °F 35.6 °F 93% 29.86 in 6.2 mi WNW 20.7 mph - N/A   Partly Cloudy
9:30 AM 39.2 °F 29.6 °F 35.6 °F 87% 29.89 in 6.2 mi NW 19.6 mph - N/A   Partly Cloudy
10:00 AM 39.2 °F 28.7 °F 35.6 °F 87% 29.89 in 6.2 mi NW 23.0 mph - N/A   Partly Cloudy
10:30 AM 41.0 °F 30.7 °F 35.6 °F 81% 29.92 in 6.2 mi NW 25.3 mph - N/A   Partly Cloudy
11:00 AM 41.0 °F 30.7 °F 33.8 °F 76% 29.92 in 6.2 mi NW 25.3 mph 36.8 mph N/A   Partly Cloudy
11:30 AM 41.0 °F 30.5 °F 33.8 °F 76% 29.92 in 6.2 mi NW 26.5 mph - N/A   Partly Cloudy
12:00 PM 42.8 °F 33.1 °F 33.8 °F 70% 29.95 in 6.2 mi NW 25.3 mph - N/A   Partly Cloudy
12:30 PM 44.6 °F 35.5 °F 33.8 °F 66% 29.95 in 6.2 mi NW 25.3 mph - N/A   Partly Cloudy
1:00 PM 44.6 °F 35.9 °F 33.8 °F 66% 29.95 in 6.2 mi NW 23.0 mph - N/A   Partly Cloudy
1:30 PM 44.6 °F 36.9 °F 32.0 °F 61% 29.98 in 6.2 mi NW 18.4 mph - N/A   Partly Cloudy
2:00 PM 46.4 °F 39.0 °F 32.0 °F 57% 29.95 in 6.2 mi WNW 19.6 mph - N/A   Partly Cloudy
2:30 PM 46.4 °F 39.2 °F 32.0 °F 57% 29.95 in 6.2 mi NW 18.4 mph - N/A   Partly Cloudy
3:00 PM 46.4 °F 39.8 °F 32.0 °F 57% 29.95 in 6.2 mi WNW 16.1 mph - N/A   Scattered Clouds
3:30 PM 46.4 °F 39.8 °F 32.0 °F 57% 29.95 in 6.2 mi WNW 16.1 mph - N/A   Scattered Clouds
4:00 PM 46.4 °F 40.7 °F 32.0 °F 57% 29.95 in 6.2 mi NW 12.7 mph - N/A   Scattered Clouds
4:30 PM 46.4 °F 41.1 °F 32.0 °F 57% 29.95 in 6.2 mi WNW 11.5 mph - N/A   Scattered Clouds
5:00 PM 46.4 °F 41.5 °F 32.0 °F 57% 29.98 in 6.2 mi WNW 10.4 mph - N/A   Scattered Clouds
5:30 PM 44.6 °F 38.1 °F 33.8 °F 66% 29.98 in 6.2 mi NW 13.8 mph - N/A   Scattered Clouds
6:00 PM 42.8 °F 37.5 °F 32.0 °F 66% 29.98 in 6.2 mi WNW 9.2 mph - N/A   Scattered Clouds
6:30 PM 41.0 °F 34.7 °F 32.0 °F 70% 29.98 in 6.2 mi WNW 10.4 mph - N/A   Scattered Clouds
7:00 PM 39.2 °F 33.0 °F 32.0 °F 75% 29.98 in 6.2 mi NW 9.2 mph - N/A   Scattered Clouds
7:30 PM 37.4 °F 34.9 °F 32.0 °F 81% 30.01 in 6.2 mi NW 3.5 mph - N/A   Partly Cloudy
8:00 PM 35.6 °F 29.2 °F 32.0 °F 87% 30.01 in 6.2 mi NNW 8.1 mph - N/A   Partly Cloudy
8:30 PM 35.6 °F 31.7 °F 32.0 °F 87% 30.01 in 6.2 mi NW 4.6 mph - N/A   Partly Cloudy
9:00 PM 33.8 °F 27.7 °F 32.0 °F 93% 30.01 in 6.2 mi NW 6.9 mph - N/A   Partly Cloudy
9:30 PM 35.6 °F 30.7 °F 32.0 °F 87% 30.01 in 6.2 mi WNW 5.8 mph - N/A   Partly Cloudy
10:00 PM 33.8 °F 27.7 °F 32.0 °F 93% 30.01 in 6.2 mi NW 6.9 mph - N/A   Scattered Clouds
10:30 PM 33.8 °F 28.6 °F 32.0 °F 93% 30.04 in 6.2 mi NW 5.8 mph - N/A   Partly Cloudy